CW0565 Weather Reports


time (UTC)temp
C
wind
direction
speed
KPH
gust
KPH
rain 1hr
cm
rain 24hr
cm
rain mn
cm
humidity
%
barometer
mb
20260901110009 20 182 6.4 14.5 0.00 0.00 0.00 56 1007.8
20260901103010 20 180 8.0 14.5 0.00 0.00 0.00 50 1007.7
20260901101509 18 216 6.4 14.5 0.00 0.00 0.00 57 1007.7
20260901100010 18 188 4.8 12.9 0.00 0.00 0.00 62 1007.8
20260901094516 17 157 8.0 11.3 0.00 0.00 0.00 63 1007.8
20260901093008 18 214 1.6 8.0 0.00 0.00 0.00 59 1007.8
20260901091510 19 228 3.2 6.4 0.00 0.00 0.00 56 1007.9
20260901090009 19 286 1.6 6.4 0.00 0.00 0.00 56 1007.8
20260901084509 18 346 1.6 6.4 0.00 0.00 0.00 60 1007.7
20260901081509 17 344 0.0 4.8 0.00 0.00 0.00 64 1007.8
20260901080015 16 342 1.6 6.4 0.00 0.00 0.00 69 1007.7
20260901074509 16 342 1.6 8.0 0.00 0.00 0.00 67 1007.7
20260901073010 16 341 0.0 4.8 0.00 0.00 0.00 72 1007.8
20260901071511 14 340 0.0 1.6 0.00 0.00 0.00 77 1007.7
20260901070012 12 341 0.0 1.6 0.00 0.00 0.00 86 1007.6
20260901063024 11 341 1.6 6.4 0.00 0.00 0.00 93 1007.4
20260901054509 8 340 1.6 4.8 0.00 0.00 0.00 96 1007.2
20260901051510 8 340 0.0 6.4 0.00 0.00 0.00 96 1007.2
20260901044510 8 340 1.6 8.0 0.00 0.00 0.00 96 1006.9
20260901041508 8 360 1.6 4.8 0.00 0.00 0.00 96 1006.8
20260901034523 8 360 1.6 6.4 0.00 0.00 0.00 96 1006.6
20260901033010 8 360 3.2 6.4 0.00 0.00 0.00 96 1006.5
20260901030012 8 5 3.2 8.0 0.00 0.00 0.00 95 1006.3
20260901024510 8 13 1.6 6.4 0.00 0.00 0.00 95 1006.4
20260901023009 8 13 0.0 3.2 0.00 0.00 0.00 95 1006.4
20260901021510 8 13 1.6 6.4 0.00 0.00 0.00 95 1006.2
20260901014509 9 15 3.2 6.4 0.00 0.00 0.00 94 1006.2
20260901013010 9 24 3.2 8.0 0.00 0.00 0.00 93 1006.1
20260901011509 9 25 1.6 6.4 0.00 0.00 0.00 93 1006.0
20260901010020 9 19 3.2 8.0 0.00 0.00 0.00 93 1005.9
20260901004517 10 164 0.0 3.2 0.00 0.00 0.00 92 1005.9
20260901003012 10 164 0.0 4.8 0.00 0.00 0.00 92 1005.9
20260901001514 10 165 0.0 0.0 0.00 0.00 0.00 92 1005.7
20260831234510 10 163 0.0 0.0 0.00 0.00 0.00 91 1005.8
20260831233009 10 164 0.0 0.0 0.00 0.00 0.00 90 1005.8
20260831231511 10 164 0.0 4.8 0.00 0.00 0.00 89 1005.7
20260831224509 11 165 0.0 0.0 0.00 0.00 0.00 88 1005.7
20260831223010 11 164 0.0 0.0 0.00 0.00 0.00 87 1005.6
20260831221509 11 164 0.0 0.0 0.00 0.00 0.00 86 1005.7
20260831220010 12 164 0.0 0.0 0.00 0.00 0.00 85 1005.7
20260831214510 12 165 0.0 0.0 0.00 0.00 0.00 84 1005.7
20260831213009 12 164 0.0 0.0 0.00 0.00 0.00 82 1005.5
20260831211510 12 164 0.0 0.0 0.00 0.00 0.00 81 1005.5
20260831210024 13 164 0.0 0.0 0.00 0.00 0.00 80 1005.4
20260831204509 13 164 0.0 0.0 0.00 0.00 0.00 79 1005.3
20260831203011 14 165 0.0 0.0 0.00 0.00 0.00 77 1005.2
20260831201510 14 164 0.0 0.0 0.00 0.00 0.00 74 1005.0
20260831200010 15 163 0.0 0.0 0.00 0.00 0.00 71 1005.0
20260831194509 15 163 0.0 3.2 0.00 0.00 0.00 69 1004.8
20260831193024 16 163 0.0 3.2 0.00 0.00 0.00 67 1004.6
20260831191511 16 163 0.0 4.8 0.00 0.00 0.00 65 1004.5
20260831190011 17 164 1.6 6.4 0.00 0.00 0.00 64 1004.5
20260831184510 17 164 1.6 6.4 0.00 0.00 0.00 61 1004.3
20260831183013 18 163 3.2 11.3 0.00 0.00 0.00 59 1004.2
20260831181515 18 163 4.8 11.3 0.00 0.00 0.00 59 1004.0
20260831180011 18 161 3.2 8.0 0.00 0.00 0.00 58 1004.0
20260831174509 19 223 3.2 11.3 0.00 0.00 0.00 54 1003.9
20260831173016 19 200 3.2 12.9 0.00 0.00 0.00 56 1003.8
20260831171511 20 246 8.0 17.7 0.00 0.00 0.00 55 1003.8
20260831170010 21 194 3.2 12.9 0.00 0.00 0.00 51 1003.7
20260831164510 20 221 8.0 17.7 0.00 0.00 0.00 51 1003.6
20260831163009 20 191 8.0 16.1 0.00 0.00 0.00 58 1003.5
20260831161511 20 192 6.4 17.7 0.00 0.00 0.00 59 1003.4
20260831160014 19 140 8.0 16.1 0.00 0.00 0.00 61 1003.5
20260831153009 18 121 4.8 14.5 0.00 0.00 0.00 64 1003.6
20260831151509 18 141 9.7 17.7 0.00 0.00 0.00 65 1003.6
20260831150009 18 96 11.3 19.3 0.00 0.00 0.00 65 1003.4
20260831144509 18 137 9.7 22.5 0.00 0.00 0.00 64 1003.4
20260831143009 18 155 11.3 27.4 0.00 0.00 0.00 62 1003.4
20260831141509 20 116 16.1 25.7 0.00 0.00 0.00 58 1003.3
20260831140009 20 148 6.4 16.1 0.00 0.00 0.00 54 1003.3
20260831134509 20 175 8.0 16.1 0.00 0.00 0.00 51 1003.3
20260831133009 19 166 9.7 16.1 0.00 0.00 0.00 59 1003.4
20260831131510 18 143 6.4 14.5 0.00 0.00 0.00 64 1003.4
20260831130009 17 189 11.3 17.7 0.00 0.00 0.00 66 1003.5
20260831124510 17 185 11.3 20.9 0.00 0.00 0.00 66 1003.6
20260831123014 17 188 9.7 17.7 0.00 0.00 0.00 64 1003.6
20260831121513 17 156 16.1 19.3 0.00 0.00 0.00 62 1003.6
20260831120011 17 161 11.3 19.3 0.00 0.00 0.00 62 1003.6
20260831114511 18 185 6.4 17.7 0.00 0.00 0.00 54 1003.4
20260831113010 18 129 11.3 24.1 0.00 0.00 0.00 59 1003.4
20260831111510 18 146 9.7 20.9 0.00 0.00 0.00 57 1003.4